Regional Weather Roundup
Issued by NWS Newport/Morehead, NC

Current Version | Previous Version | Text Only | Print | Product List | Glossary On
Versions: 1 2 3 4 5 6 7 8 9 10 11 12 13 14 15 16 17 18 19 20 21 22 23 24 25 26 27 28 29 30 31 32 33 34 35 36 37 38 39 40 41 42 43 44 45 46 47 48 49 50
000
ASUS42 KMHX 041025
RWRMHX
WEATHER ROUNDUP FOR EASTERN NORTH CAROLINA
NATIONAL WEATHER SERVICE NEWPORT/MOREHEAD CITY NC
600 AM EDT TUE AUG 04 2015

NOTE: "FAIR" INDICATES FEW OR NO CLOUDS BELOW 12,000 FEET
WITH NO SIGNIFICANT WEATHER AND/OR OBSTRUCTIONS TO VISIBILITY

NCZ015>017-031-032-045>047-102-103-041100-
NORTH COAST

CITY           SKY/WX    TMP DP  RH WIND       PRES   REMARKS
EDENTON          N/A     77  75  93 SW6       29.99R
ELIZABETH CITY MOCLDY    79  76  90 SW8       29.98R
KITTY HAWK     MOSUNNY   79  76  90 SW6       29.98R
MANTEO         CLEAR     79  77  94 SW14      30.00R

$$

NCZ045>047-081-094-103-104-041100-
CENTRAL COAST

CITY           SKY/WX    TMP DP  RH WIND       PRES   REMARKS
FRISCO         MOCLDY    79  75  87 SW8       30.00R
SWANQUARTER      N/A     81 N/A N/A S10       29.97R

$$

NCZ095-097-098-100-101-041100-
SOUTHERN COAST

CITY           SKY/WX    TMP DP  RH WIND       PRES   REMARKS
BEAUFORT       PTCLDY    80  75  84 S13       30.00R
CEDAR ISLAND     N/A     79 N/A N/A S5        30.03S
JACKSONVILLE   PTCLDY    79  75  87 S6        29.98R
PINEY ISLAND   MOSUNNY  N/A N/A N/A S6        29.99S
WILMINGTON     CLOUDY    79  75  87 S7        29.96R


$$

NCZ011>013-027>030-043-044-078>080-089-090>093-098-041100-
COASTAL PLAIN

CITY           SKY/WX    TMP DP  RH WIND       PRES   REMARKS
AHOSKIE        CLEAR     72  71  96 CALM      29.99R
CLINTON        PTCLDY    75  75 100 CALM      29.99R
ELIZABETHTOWN  PTCLDY    76  76 100 CALM      29.97S
GOLDSBORO      CLEAR     75  75  99 VRB1      29.97R
GREENVILLE     CLOUDY    77  77 100 CALM      30.01R FOG
HAVELOCK       CLOUDY    78  75  90 S5        30.00R
KENANSVILLE    CLOUDY   N/A N/A N/A CALM      29.99R FOG
KINSTON        CLEAR     77  76  96 S3        30.00R
NEW BERN       CLEAR     78  75  90 S3        30.00R
RICHLANDS      PTCLDY    77  72  83 S3        29.98S
ROCKY MOUNT    PTCLDY    73  71  93 CALM      29.98R
WASHINGTON     PTCLDY    76  75  96 CALM      30.00R FOG
WHITEVILLE     RAIN      74  73  95 CALM      29.95S

$$

AMZ130-135-150-152-154-156-158-170-250-252-270-ANZ085-086-088-633-658-670-041100-
MARINE OBSERVATIONS

STATION/POSITION TIME  TEMP    WIND        PRES    WAVE   SWELL
                       AIR SEA DIR/SP/G            HT/PER HT/PER
                 (UTC) (F)     (DEG/KT/KT) (MB)    (FT/S) (FT/S)
CHESAPEAKE LIGHT 1000   77     240/ 19/ 21 1015.5
64 E VA BEACH    0950   81 80  220/ 16/ 19 1014.8    6/ 7   2/11
DUCK             1000   80 63  210/ 11/ 14 1014.6
2 E DUCK         0911      67                N/A     2/ 5   2/11
OREGON INLET     1000   81 80  200/ 16/ 18 1015.6
13E OREGON INLT  1000      79                N/A     4/ 5   2/12
HATTERAS CG      1000   79 78  200/  5/  8 1015.6
DIAMOND BUOY     0950   83 84  200/ 17/ 21 1016.0    4/ 5   2/ 8
CAPE LOOKOUT     1000   80     200/ 10/ 14 1015.5
BEAUFORT LAB     1000   81 79  210/ 12/ 16 1015.1
30 SE NEW RVR IN NOT AVBL
27 SE WRIGHTSVLE 1000   78 81  180/ 17/ 21   N/A
5 SE WRIGHTSVLE  0908   82 82  180/ 17/ 23 1014.1
225 S CAPE HAT   0950   81 81  210/  8/ 10 1018.4    5/ 7   5/ 7
41 SE CHARLESTON 0950   80 83  190/ 19/ 23 1011.3    8/ 6   2/11

$$


USA.gov is the U.S. government's official web portal to all federal, state and local government web resources and services.